Location: Berkeley
(37.8716°N, 122.2727°W)
Time: 11:02:23
(UTC-07:00)

Envisat - Pass Details

Date: 23 April 2024
Orbit: 762 x 764 km, 98.3° (Epoch: 29 May)

Event Time Altitude Azimuth Distance (km) Brightness Sun altitude
Rises 05:06:26 0° 4° (N) 3,235 6.7 -14.6°
Reaches altitude 10° 05:08:52 10° 357° (N) 2,304 5.8 -14.2°
Maximum altitude 05:13:33 39° 289° (WNW) 1,132 3.6 -13.3°
Enters shadow 05:16:58 17° 229° (SW) 1,848 4.4 -12.7°
